Location: Chanenche
(44.4167°N, 6.5000°E)
Time: 20:56:03
(UTC+00:00)

Daily predictions for brighter satellites

Satellite Brightness Start Highest point End
(mag) Time Altitude Azimuth Time Altitude Azimuth Time Altitude Azimuth
Thor Agena Rocket 3.7 16:21:00 10° SE 16:26:03 53° ENE 16:31:04 10° N
ATLAS CENTAUR R/B 0.9 16:23:16 10° NW 16:26:29 73° SW 16:29:34 10° SSE
Cosmos 1503 Rocket 4.2 16:21:27 10° S 16:26:30 52° ESE 16:31:34 10° NNE
CENTAUR R/B 3.8 16:23:13 10° W 16:28:27 31° NNW 16:34:49 10° NNE
Cosmos 1484 Rocket 2.5 16:27:12 10° SSE 16:30:43 88° WSW 16:34:14 10° NNW
Cosmos 1544 Rocket 3.6 16:26:57 10° S 16:31:22 89° WNW 16:35:48 10° N
Cosmos 1980 Rocket 3.5 16:29:30 10° SE 16:33:30 20° E 16:37:29 10° NE
USA 290 2.1 16:30:53 10° NNW 16:34:08 69° ENE 16:37:22 10° SSE
Lacrosse 5 rocket 3.2 16:32:04 10° NW 16:34:21 15° NNW 16:36:37 10° NNE
SL-16 R/B 2.7 16:28:41 10° NNE 16:34:57 85° WNW 16:41:07 10° SSW
GEOS 3 Rocket 3.8 16:30:01 10° NE 16:35:23 69° SE 16:40:43 10° SSW
Cosmos 1354 Rocket 4.4 16:31:11 10° S 16:36:09 44° ESE 16:41:08 10° NNE
Lacrosse 4 Rocket 3.9 16:37:08 10° WNW 16:38:39 12° NW 16:40:10 10° NNW
BREEZE M DEB (TANK) 1.7 16:36:32 10° WSW 16:39:30 75° SSE 16:41:17 12° ENE
CORIOLIS 4.1 16:34:59 10° SSE 16:40:14 63° ENE 16:45:31 10° N
Cosmos 1777 Rocket 4.0 16:37:26 10° SSW 16:42:41 85° ESE 16:47:57 10° NNE
Cosmos 2263 Rocket 3.1 16:40:13 10° N 16:45:01 27° NE 16:49:50 10° ESE
IRIDIUM 104 4.4 16:40:02 10° N 16:45:13 61° E 16:50:22 10° SSE
Cosmos 1726 Rocket 4.4 16:42:03 10° SSE 16:46:08 31° E 16:50:12 10° NNE
CZ-2D R/B 3.3 16:44:10 10° SE 16:47:02 34° ENE 16:49:55 10° N
USA 238 DEB 4.2 16:43:16 10° S 16:48:33 33° ESE 16:53:46 12° NE
USA 238 4.3 16:43:24 10° S 16:48:40 32° ESE 16:53:52 12° NE
Okean 1-7 Rocket 3.6 16:48:02 10° N 16:52:22 57° E 16:56:39 10° SSE
Cosmos 1602 Rocket 3.5 16:49:55 10° N 16:54:19 89° ENE 16:58:39 10° S
IRIDIUM 114 4.3 16:49:08 10° N 16:54:22 74° E 16:59:34 10° S
Cosmos 1461 3.1 16:50:39 10° SW 16:54:29 61° NW 16:58:24 10° NNE
Cosmos 1933 3.3 16:52:28 10° S 16:56:13 56° E 16:59:58 10° NNE
IRS-1C 4.1 16:52:58 10° SSE 16:58:13 65° ENE 17:03:31 10° N
USA 215 4.3 16:53:50 11° NE 16:58:58 30° N 17:04:27 10° WNW
Cosmos-2242 4.4 16:56:09 10° SE 16:59:01 18° E 17:00:12 16° ENE
YAOGAN 1 3.8 16:56:09 10° ESE 16:59:12 20° ENE 17:02:16 10° NNE
BREEZE-M DEB (TANK) 4.0 16:55:47 10° SSW 17:00:34 29° SSE 17:02:20 16° E
NOSS 2-3 (E) 3.4 16:57:27 10° SSW 17:01:03 50° ESE 17:03:38 17° NE
NOSS 2-3 (D) 3.5 16:58:08 10° SSW 17:01:43 46° ESE 17:04:14 18° NE
Cosmos 2227 Rocket 2.2 16:56:10 10° NNW 17:01:45 57° ENE 17:07:17 10° SE
SKYMED 2 4.5 16:58:49 11° NE 17:02:19 28° E 17:06:03 10° SSE
SJ-12 3.7 16:59:24 10° SSE 17:03:06 60° ENE 17:06:51 10° N
IRIDIUM 103 4.3 16:58:16 10° N 17:03:32 89° E 17:08:45 10° S
Cosmos 1743 3.5 17:01:38 10° NNW 17:04:45 44° W 17:07:50 10° SSW
NOSS 7 (H) 4.1 17:02:08 10° NNW 17:05:01 56° NE 17:08:16 10° SE
Cosmos 2151 3.4 17:04:16 10° NNW 17:08:24 65° W 17:12:30 10° S
Cosmos 1697 Rocket 2.7 17:07:49 10° SSW 17:13:25 89° WNW 17:19:05 10° NNE
Cosmos 990 Rocket 3.9 17:08:39 10° SSW 17:13:45 80° ESE 17:18:55 10° NNE
Cosmos 1655 Rocket 4.0 17:08:18 10° N 17:14:26 55° ENE 17:20:30 10° SSE
MOS 1 Rocket 3.4 17:10:56 10° SSE 17:15:47 71° ENE 17:20:57 10° N
Aureole 1 Rocket 3.8 17:12:12 10° SSE 17:16:11 38° E 17:19:37 17° NE
SAR-Lupe-4 3.5 17:12:58 10° SSE 17:16:31 85° WSW 17:20:05 10° NNW
Cosmos 1867 3.6 17:11:05 10° NW 17:16:35 89° WSW 17:22:01 10° SSE
Cosmos 1953 Rocket 3.8 17:13:51 10° N 17:18:09 46° ENE 17:22:25 10° SSE
ARIANE 5 R/B 2.7 17:18:08 10° S 17:23:10 76° WSW 17:28:19 10° NNW
Cosmos 2084 Rocket 4.2 17:22:50 10° NW 17:26:57 53° WSW 17:31:01 10° SSE
SAR-Lupe-1 4.3 17:23:48 10° S 17:27:23 72° WSW 17:31:01 10° NNW
Cosmos 1825 Rocket 3.6 17:23:08 10° N 17:27:30 82° W 17:31:47 10° S
SOZ 4.2 17:27:03 10° WSW 17:29:28 42° NNW 17:29:40 40° N
COSMOS 2455 4.2 17:25:40 10° SSE 17:29:38 19° ESE 17:29:38 19° ESE
Helios 1A Rocket 4.5 17:32:02 15° SE 17:32:02 15° SE 17:32:55 10° SSE
CZ-2D R/B 3.5 17:30:29 10° SSE 17:34:33 51° ENE 17:38:35 10° N
USA 81 4.1 17:30:08 10° N 17:35:19 54° E 17:40:27 10° SSE
IRAS Rocket 4.4 17:31:58 10° SE 17:37:07 44° ENE 17:42:17 10° N
Meteor 2-2 Rocket 4.4 17:32:41 10° SSE 17:38:03 46° E 17:41:51 19° NNE
Gbstr 26 Del rocket 3.1 17:34:25 10° WSW 17:38:24 55° NNW 17:39:37 36° NNE
NOSS 3-2 (C) 4.2 17:33:47 10° WSW 17:38:36 40° NW 17:43:16 15° NNE
SPOT 1/Viking Rocket 3.4 17:35:00 10° SSE 17:40:10 75° ENE 17:45:23 10° N
PSLV R/B 4.0 17:38:26 10° SE 17:43:07 36° NE 17:46:05 10° N
Cosmos 1076 Rocket 3.5 17:41:15 10° N 17:45:34 82° W 17:49:52 10° S
SL-19 R/B 4.3 17:40:39 10° SE 17:45:51 54° ENE 17:51:21 10° N
IRS-P3 4.5 17:42:28 10° S 17:47:44 67° WSW 17:53:03 10° NNW
Cosmos 2058 Rocket 3.0 17:44:05 10° S 17:48:31 68° E 17:50:44 29° NNE
Cosmos 2082 4.0 17:43:32 10° NNW 17:48:59 44° ENE 17:50:42 35° E
CZ-4C R/B 3.7 17:42:09 10° NW 17:49:18 57° WSW 17:57:55 10° SSE
COSMO-SKYMED 1 2.4 17:49:12 49° ENE 17:49:57 58° E 17:54:00 10° S
SL-16 R/B 4.1 17:55:03 10° SSE 17:56:09 14° SE 17:56:09 14° SE
Cosmos 1538 Rocket 4.0 17:56:05 10° NNW 18:01:24 85° WSW 18:06:44 10° SSE
Meteor 1-26 Rocket 4.0 17:56:59 10° S 18:02:22 76° E 18:05:35 25° NNE
Nadezhda 2 Rocket 4.3 17:57:22 10° N 18:03:28 65° E 18:09:31 10° SSE
EXPRESS MD2 3.3 18:01:02 10° WSW 18:03:06 54° SW 18:03:06 54° SW
Cosmos 1553 Rocket 3.8 18:03:33 10° S 18:09:39 72° E 18:14:52 15° NNE
Resurs 1-3 3.5 18:06:46 10° S 18:11:04 80° WSW 18:15:23 10° NNW
Lacrosse 5 rocket 3.8 18:11:14 10° NNW 18:11:16 10° NNW 18:11:16 10° NNW
BREEZE-M DEB (TANK) 4.2 18:11:39 10° WNW 18:12:05 15° WNW 18:12:05 15° WNW
Cosmos 2219 3.1 18:08:53 10° NNW 18:14:40 82° ENE 18:17:57 27° SSE
Cosmos 1980 Rocket 2.5 18:11:19 10° SW 18:16:56 63° WNW 18:19:44 30° N
Cosmos 1844 Rocket 4.3 18:16:46 10° N 18:18:59 21° N 18:18:59 21° N
Spot 4 Rocket 4.4 18:17:46 10° S 18:22:49 63° WSW 18:27:54 10° NNW
Cosmos 1898 Rocket 3.7 18:23:52 10° SSW 18:28:58 65° WNW 18:30:11 49° N
Cosmos 2263 Rocket 2.9 18:23:43 10° NW 18:29:13 53° WSW 18:34:43 10° S
Cosmos 2369 3.6 18:24:07 10° SSW 18:29:50 86° WNW 18:30:42 66° NNE
SL-24 R/B - RUBIN 2 4.5 18:27:49 10° SSW 18:32:02 49° S 18:32:02 49° S
YAOGAN 1 3.7 18:30:44 10° S 18:34:45 42° W 18:38:49 10° NNW
Cosmos-2242 4.2 18:31:44 10° SSW 18:35:43 40° WNW 18:36:34 35° NW
USA 238 DEB 4.1 18:33:09 10° WSW 18:39:06 52° NW 18:41:14 38° N
USA 238 4.1 18:33:14 10° WSW 18:39:13 53° NW 18:41:20 38° N
USA 215 4.0 18:41:10 37° NNE 18:41:10 37° NNE 18:46:50 10° NW
Cosmos 1937 Rocket 3.9 18:42:39 10° SSW 18:47:30 60° W 18:47:30 60° W
Cosmos 1386 Rocket 4.5 18:47:16 10° N 18:53:22 77° W 18:59:32 10° S
COSMOS 2455 3.8 19:08:57 10° SW 19:12:48 42° SW 19:12:48 42° SW
